Location: Burleson Alternative School
(32.5290°N, 97.3406°W)
Time: 10:36:49
(UTC+00:00)

Vanguard 2 Rocket - Pass Details

Date: 14 November 2025
Orbit: 553 x 3287 km, 32.9° (Epoch: 07 December)

Event Time Altitude Azimuth Distance (km) Brightness Sun altitude
Rises 00:54:19 0° 253° (WSW) 2,711 11.1 -18.0°
Reaches altitude 10° 00:56:22 10° 252° (WSW) 1,850 9.7 -18.4°
Maximum altitude 01:00:21 75° 167° (SSE) 672 6.1 -19.3°
Enters shadow 01:01:58 41° 91° (E) 1,013 6.6 -19.6°
